Sidney, NE

1:40 PM MST on February 25, 2018 (GMT -0700)
Sidney Municipal

Weather History for KSNY - May, 2012

Change the Weather History Date:

Thursday, May 31, 2012

  Actual Average Record
Temperature  
Mean Temperature 60 °F 62 °F  
Max Temperature 77 °F 76 °F 91 °F (2002)
Min Temperature 42 °F 48 °F 35 °F (1964)
Degree Days  
Heating Degree Days 5 5  
Month to date heating degree days 185 251  
Since 1 July heating degree days 5592 6162  
Cooling Degree Days 0 2  
Month to date cooling degree days 47 21  
Year to date cooling degree days 54 22  
Growing Degree Days 9 (Base 50)    
Moisture  
Dew Point 36 °F    
Average Humidity 51    
Maximum Humidity 83    
Minimum Humidity 18    
Precipitation  
Precipitation T in 0.11 in 1.10 in (1979)
Month to date precipitation 0.54 3.09  
Year to date precipitation 2.67 6.76  
Sea Level Pressure  
Sea Level Pressure 30.02 in    
Wind  
Wind Speed 11 mph (NNE)    
Max Wind Speed 23 mph    
Max Gust Speed 37 mph    
Visibility 10 miles    
Events Rain    
T = Trace of Precipitation, MM = Missing Value Source: NWS Daily Summary

Daily Weather History Graph

Daily Weather History Graph

Search for Another Location

Airport or City:

Trip Planner

Search our weather history database for the weather conditions in past years. The results will help you decide how hot, cold, wet, or windy it might be!

Date:

Astronomy

May. 31, 2012 Rise Set
Actual Time 5:22 AM MDT 8:17 PM MDT
Civil Twilight 4:49 AM MDT 8:50 PM MDT
Nautical Twilight 4:07 AM MDT 9:32 PM MDT
Astronomical Twilight 3:19 AM MDT 10:21 PM MDT
Moon 4:08 PM MDT (5/31) 2:23 AM MDT (5/31)
Length of Visible Light 16h 01m
Length of Day
14h 55m
Waxing Gibbous, 81% of the Moon is Illuminated
May 31
Waxing Gibbous
Jun 4
Full
Jun 11
Last Quarter
Jun 19
New
Jun 26
First Quarter

Hourly Weather History & Observations

Time (MDT) Temp. Windchill Dew Point Humidity Pressure Visibility Wind Dir Wind Speed Gust Speed Precip Events Conditions
12:53 AM 50.0 °F - 37.0 °F 61% 30.02 in 10.0 mi Calm Calm - N/A   Overcast
1:53 AM 45.0 °F 42.6 °F 39.0 °F 80% 30.01 in 10.0 mi South 4.6 mph - 0.00 in   Scattered Clouds
2:53 AM 43.0 °F 38.8 °F 37.9 °F 82% 30.04 in 10.0 mi SW 6.9 mph - N/A   Partly Cloudy
3:53 AM 46.9 °F - 41.0 °F 80% 30.05 in 10.0 mi SW 8.1 mph - N/A   Overcast
4:53 AM 51.1 °F - 42.1 °F 71% 30.08 in 10.0 mi ENE 3.5 mph - N/A   Overcast
5:53 AM 50.0 °F - 43.0 °F 77% 30.09 in 10.0 mi South 4.6 mph - 0.00 in   Overcast
6:53 AM 51.1 °F - 44.1 °F 77% 30.09 in 10.0 mi West 9.2 mph - 0.00 in Rain Light Rain
8:53 AM 62.1 °F - 41.0 °F 46% 30.07 in 10.0 mi NNW 16.1 mph 21.9 mph N/A   Overcast
9:53 AM 66.0 °F - 36.0 °F 33% 30.07 in 10.0 mi NW 16.1 mph 25.3 mph N/A   Partly Cloudy
10:53 AM 66.9 °F - 34.0 °F 30% 30.06 in 10.0 mi North 12.7 mph 19.6 mph N/A   Mostly Cloudy
11:53 AM 69.1 °F - 33.1 °F 26% 30.06 in 10.0 mi NNW 15.0 mph 25.3 mph N/A   Mostly Cloudy
12:53 PM 70.0 °F - 35.1 °F 28% 30.03 in 10.0 mi North 10.4 mph 24.2 mph N/A   Mostly Cloudy
1:53 PM 72.0 °F - 32.0 °F 23% 30.02 in 10.0 mi North 12.7 mph 25.3 mph N/A   Partly Cloudy
2:53 PM 75.0 °F - 30.9 °F 20% 30.00 in 10.0 mi North 19.6 mph 28.8 mph N/A   Scattered Clouds
3:53 PM 75.9 °F - 30.0 °F 19% 29.96 in 10.0 mi NNE 11.5 mph 26.5 mph N/A   Clear
4:53 PM 75.0 °F - 28.9 °F 18% 29.95 in 10.0 mi NNE 13.8 mph 24.2 mph N/A   Clear
6:53 PM 70.0 °F - 30.9 °F 24% 29.97 in 10.0 mi ENE 10.4 mph - N/A   Partly Cloudy
7:53 PM 64.9 °F - 34.0 °F 32% 29.98 in 10.0 mi East 9.2 mph - N/A   Clear
8:53 PM 55.9 °F - 35.1 °F 45% 29.99 in 10.0 mi SE 8.1 mph - N/A   Clear
9:53 PM 54.0 °F - 37.0 °F 53% 30.00 in 10.0 mi SE 8.1 mph - N/A   Clear
11:53 PM 55.9 °F - 41.0 °F 57% 29.97 in 10.0 mi SSE 11.5 mph - N/A   Partly Cloudy